[[{"header":{"parameterUnit":"m.s-1","parameterCategory":1,"la1":30.2991,"la2":30.254,"lo1":-89.0895,"lo2":-89.0444,"dy":0.0017,"dx":0.0017,"nx":28,"ny":28,"refTime":"2023-04-26T15:00:00:Z","depth":0,"parameterNumber":2,"parameterNumberName":"U-component_of_WINDS"},"data":[0,0,0,0,0,0,0,0,0,0,0,0,0,0,0,0,0,0,0,0,0,0,0,0,0,0,0,0,0,0,0,0,0,0,0,0,0,0,0,0,0,0,0,0,0,0,0,0,0,0,0,0,0,0,0,0,0,0,-2.3981,-2.3981,0,-2.3948,-2.3947,-2.3947,-2.384,-2.3838,-2.3835,-2.3833,-2.3802,-2.3804,-2.3805,0,0,0,0,0,0,0,0,0,0,0,0,0,-2.3955,-2.3956,-2.3981,-2.3981,-2.398,-2.3948,-2.3947,-2.3947,-2.3841,-2.3838,-2.3835,-2.3832,-2.3802,-2.3803,-2.3805,0,0,0,0,0,0,0,0,0,0,0,0,0,-2.3949,-2.3957,-2.3981,-2.3923,-2.3918,-2.3948,-2.3947,-2.3947,-2.3841,-2.3838,-2.3834,-2.3831,-2.3801,-2.3803,-2.3805,-2.389,0,0,-2.3812,-2.3813,0,0,0,0,0,0,0,0,-2.3949,-2.395,-2.3932,-2.3927,-2.3921,-2.3894,-2.3927,-2.3928,-2.3842,-2.387,-2.3833,-2.3829,-2.3836,-2.3835,-2.3837,-2.3888,-2.3887,-2.3812,-2.3813,-2.3814,-2.3815,0,0,0,0,0,0,0,-2.395,-2.3951,-2.3968,-2.3932,-2.3925,-2.39,-2.3895,-2.3926,-2.3874,-2.3868,-2.386,-2.3857,-2.3832,-2.3835,-2.3835,-2.3886,-2.3812,-2.3814,-2.3815,-2.3816,-2.4004,-2.4008,0,0,0,0,0,0,-2.3958,-2.3952,-2.3969,-2.3967,-2.3927,-2.3903,-2.3898,-2.3907,-2.3873,-2.3864,-2.386,-2.3852,-2.3833,-2.3833,-2.3834,-2.3929,-2.3814,-2.3816,-2.3817,-2.4,-2.4005,-2.4009,0,0,0,0,0,0,-2.3958,-2.3961,-2.397,-2.3957,-2.3956,-2.3907,-2.3918,-2.3908,-2.391,-2.3867,-2.3858,-2.3872,-2.383,-2.3831,-2.3876,-2.3927,-2.3817,-2.3819,-2.3996,-2.4002,-2.4007,-2.4123,0,0,0,0,0,0,-2.3958,-2.3962,-2.3993,-2.3959,-2.3958,-2.4013,-2.3921,-2.391,-2.3914,-2.3903,-2.3876,-2.3868,-2.3827,-2.3873,-2.3878,-2.3928,-2.382,-2.3991,-2.3999,-2.4005,-2.4114,-2.4131,-2.4146,0,0,0,0,0,-2.3957,-2.4028,-2.3995,-2.3998,-2.3996,-2.4016,-2.4016,-2.3966,-2.3918,-2.395,-2.3922,-2.3869,-2.392,-2.3879,-2.3883,-2.3935,-2.3988,-2.3996,-2.4005,-2.4107,-2.4128,-2.4146,0,0,0,0,0,0,-2.4071,-2.4022,-2.3985,-2.4047,-2.4036,-2.3998,-2.4036,-2.3991,-2.3995,-2.3985,-2.3924,-2.3919,-2.3973,-2.3958,-2.3912,-2.4014,-2.3945,-2.3955,-2.4021,-2.4041,-2.4057,-2.406,-2.3822,0,0,0,0,0,-2.4103,-2.4123,-2.4079,-2.4138,-2.4134,-2.4086,-2.4094,-2.4056,-2.4043,-2.4039,-2.4014,-2.4005,-2.4018,-2.4029,-2.4039,-2.4111,-2.4103,-2.4148,-2.4164,-2.4178,-2.4187,-2.4223,-2.4242,-2.4037,-2.4037,-2.4036,0,0,-2.417,-2.4145,-2.4162,-2.416,-2.4147,-2.417,-2.4084,-2.4112,-2.4128,-2.4043,-2.4084,-2.4066,-2.4051,-2.411,-2.4134,-2.4099,-2.4242,-2.4188,-2.42,-2.4202,-2.4234,-2.4253,-2.4271,-2.4042,-2.4041,-2.404,0,0,-2.4302,-2.4286,-2.4332,-2.4321,-2.4302,-2.427,-2.4281,-2.4249,-2.4233,-2.4273,-2.421,-2.4229,-2.4254,-2.4245,-2.4244,-2.4372,-2.4324,-2.4377,-2.4462,-2.4498,-2.4514,-2.4529,-2.4574,-2.4591,-2.4387,-2.4387,-2.4387,0,-2.4388,-2.4419,-2.4362,-2.4394,-2.4394,-2.4317,-2.4363,-2.4356,-2.4342,-2.4345,-2.4305,-2.4334,-2.4318,-2.4374,-2.4405,-2.4407,-2.4418,-2.4381,-2.4516,-2.453,-2.4542,-2.4585,-2.4602,-2.4394,-2.4393,-2.4392,-2.4391,0,-2.4525,-2.4547,-2.4586,-2.4573,-2.4579,-2.4618,-2.4568,-2.458,-2.4541,-2.4513,-2.4554,-2.4532,-2.4537,-2.4547,-2.451,-2.4597,-2.4575,-2.4527,-2.4457,-2.4569,-2.4609,-2.4625,-2.4403,-2.4401,-2.4399,-2.4397,0,0,-2.473,-2.4683,-2.4699,-2.4691,-2.4664,-2.4681,-2.4716,-2.4718,-2.473,-2.4723,-2.4751,-2.4773,-2.4728,-2.4727,-2.4688,-2.472,-2.4822,-2.4667,-2.4666,-2.4697,-2.4916,-2.4953,-2.4972,-2.4789,-2.4792,-2.4795,-2.4917,0,-2.4856,-2.4912,-2.4862,-2.4928,-2.4948,-2.4874,-2.4904,-2.4891,-2.4865,-2.4879,-2.485,-2.4867,-2.4806,-2.4804,-2.4832,-2.4804,-2.4865,-2.4794,-2.4816,-2.4817,-2.4822,-2.4993,-2.5032,-2.5149,-2.4932,-2.4934,-2.4936,0,-2.5011,-2.5009,-2.5077,-2.5044,-2.505,-2.5079,-2.5076,-2.5089,-2.5073,-2.5052,-2.505,-2.5002,-2.5035,-2.4966,-2.501,-2.4963,-2.4968,-2.4956,-2.4959,-2.496,-2.4884,-2.4999,-2.5185,-2.5202,-2.496,-2.4958,-2.4956,0,-2.5153,-2.5168,-2.521,-2.5206,-2.5169,-2.519,-2.5176,-2.5156,-2.516,-2.5158,-2.516,-2.5163,-2.5164,-2.5168,-2.5122,-2.5076,-2.5172,-2.5099,-2.5156,-2.5157,-2.518,-2.518,-2.537,-2.5184,-2.5183,-2.5183,-2.5183,0,-2.53,-2.5344,-2.5273,-2.53,-2.5347,-2.5288,-2.5338,-2.5315,-2.5298,-2.5319,-2.5255,-2.5276,-2.5214,-2.5229,-2.5194,-2.5236,-2.5237,-2.5221,-2.5211,-2.5227,-2.5229,-2.5231,-2.5221,-2.5188,-2.5187,-2.5186,-2.5185,0,-2.5468,-2.5422,-2.5463,-2.5423,-2.5414,-2.5451,-2.5418,-2.544,-2.5409,-2.5437,-2.544,-2.5392,-2.5406,-2.536,-2.5367,-2.5343,-2.5405,-2.5381,-2.541,-2.5403,-2.5462,-2.5457,-2.5661,-2.5684,-2.5483,-2.5485,-2.5486,0,-2.5564,-2.5596,-2.556,-2.5568,-2.5557,-2.5572,-2.5575,-2.5518,-2.5525,-2.5507,-2.5532,-2.5541,-2.5544,-2.557,-2.5537,-2.5541,-2.5518,-2.5589,-2.5518,-2.5533,-2.5519,-2.5518,-2.5521,-2.5604,-2.5606,-2.5608,-2.561,0,-2.574,-2.5716,-2.5722,-2.5721,-2.5726,-2.5723,-2.5715,-2.5726,-2.5665,-2.5675,-2.5688,-2.569,-2.5696,-2.5706,-2.5703,-2.5689,-2.564,-2.5632,-2.5645,-2.5662,-2.5678,-2.567,-2.545,-2.5628,-2.5626,-2.5625,-2.5624,-2.5623,-2.5875,-2.59,-2.5878,-2.5887,-2.5874,-2.5868,-2.5887,-2.5858,-2.5867,-2.5866,-2.5832,-2.5852,-2.5833,-2.5824,-2.5815,-2.583,-2.5797,-2.5817,-2.5821,-2.5827,-2.5837,-2.5675,-2.5829,-2.5829,-2.5828,-2.5828,-2.5827,0,-2.6048,-2.6029,-2.6038,-2.6028,-2.6036,-2.5987,-2.5975,-2.5985,-2.6002,-2.5989,-2.5993,-2.6007,-2.6015,-2.5982,-2.5985,-2.6003,-2.5981,-2.6006,-2.6005,-2.6002,-2.5866,-2.5855,-2.6024,-2.6024,-2.6024,-2.6024,-2.6024,-2.6024,-2.6139,-2.6178,-2.615,-2.6182,-2.6163,-2.618,-2.6178,-2.6172,-2.6161,-2.6179,-2.6185,-2.6162,-2.614,-2.6141,-2.6147,-2.6137,-2.6141,-2.6174,-2.6157,-2.6031,-2.6012,-2.5994,-2.5982,-2.6176,-2.6176,-2.6291,-2.6292,-2.6293]},{"header":{"parameterUnit":"m.s-1","parameterCategory":1,"la1":30.2991,"la2":30.254,"lo1":-89.0895,"lo2":-89.0444,"dy":0.0017,"dx":0.0017,"nx":28,"ny":28,"refTime":"2023-04-26T15:00:00:Z","depth":0,"parameterNumber":3,"parameterNumberName":"V-component_of_WINDS"},"data":[0,0,0,0,0,0,0,0,0,0,0,0,0,0,0,0,0,0,0,0,0,0,0,0,0,0,0,0,0,0,0,0,0,0,0,0,0,0,0,0,0,0,0,0,0,0,0,0,0,0,0,0,0,0,0,0,0,0,-1.0199,-1.0199,0,-1.0214,-1.0214,-1.0214,-1.024,-1.0241,-1.0241,-1.0242,-1.0255,-1.0255,-1.0255,0,0,0,0,0,0,0,0,0,0,0,0,0,-1.0192,-1.0192,-1.0199,-1.0199,-1.02,-1.0214,-1.0214,-1.0214,-1.024,-1.0241,-1.0241,-1.0242,-1.0255,-1.0255,-1.0255,0,0,0,0,0,0,0,0,0,0,0,0,0,-1.0199,-1.0192,-1.0199,-1.0214,-1.0216,-1.0214,-1.0214,-1.0214,-1.024,-1.0241,-1.0241,-1.0242,-1.0255,-1.0255,-1.0255,-1.0239,0,0,-1.0254,-1.0254,0,0,0,0,0,0,0,0,-1.0199,-1.02,-1.0212,-1.0213,-1.0215,-1.0226,-1.0216,-1.0223,-1.024,-1.0231,-1.0242,-1.0242,-1.0245,-1.0246,-1.0247,-1.024,-1.024,-1.0254,-1.0254,-1.0254,-1.0254,0,0,0,0,0,0,0,-1.0198,-1.0199,-1.0205,-1.0212,-1.0214,-1.022,-1.0222,-1.0218,-1.0233,-1.0232,-1.0233,-1.0235,-1.0246,-1.0247,-1.0247,-1.0241,-1.0254,-1.0254,-1.0254,-1.0254,-1.0221,-1.022,0,0,0,0,0,0,-1.0196,-1.0199,-1.0205,-1.0206,-1.0209,-1.0219,-1.0221,-1.0222,-1.0233,-1.0236,-1.0234,-1.0236,-1.0247,-1.0247,-1.0248,-1.0229,-1.0254,-1.0254,-1.0254,-1.0222,-1.0221,-1.022,0,0,0,0,0,0,-1.0196,-1.0196,-1.0204,-1.0203,-1.0204,-1.0219,-1.0219,-1.0222,-1.0223,-1.0236,-1.0238,-1.0233,-1.0247,-1.0248,-1.0241,-1.023,-1.0254,-1.0254,-1.0223,-1.0221,-1.022,-1.0193,0,0,0,0,0,0,-1.0195,-1.0196,-1.0191,-1.0202,-1.0204,-1.0198,-1.0218,-1.0221,-1.0222,-1.0225,-1.0235,-1.0237,-1.0248,-1.0241,-1.0241,-1.0231,-1.0254,-1.0224,-1.0222,-1.0221,-1.0195,-1.0191,-1.0188,0,0,0,0,0,-1.0195,-1.0182,-1.019,-1.0191,-1.0198,-1.0197,-1.0198,-1.0211,-1.0222,-1.0216,-1.0224,-1.0237,-1.0232,-1.024,-1.024,-1.023,-1.0224,-1.0222,-1.0221,-1.0197,-1.0192,-1.0188,0,0,0,0,0,0,-1.0169,-1.0184,-1.0193,-1.0184,-1.0189,-1.0201,-1.0195,-1.0206,-1.0208,-1.021,-1.0226,-1.0228,-1.0218,-1.0223,-1.0233,-1.0215,-1.023,-1.0228,-1.0212,-1.0207,-1.0204,-1.0202,-1.0254,0,0,0,0,0,-1.0162,-1.016,-1.0174,-1.0164,-1.0167,-1.018,-1.018,-1.019,-1.0196,-1.0198,-1.0206,-1.021,-1.0209,-1.0209,-1.0209,-1.0196,-1.0198,-1.0189,-1.0185,-1.0182,-1.018,-1.0173,-1.0168,-1.0214,-1.0214,-1.0214,0,0,-1.0148,-1.0156,-1.0154,-1.0159,-1.0164,-1.0162,-1.0182,-1.0178,-1.0177,-1.0197,-1.0191,-1.0197,-1.0203,-1.0193,-1.0189,-1.0197,-1.0168,-1.018,-1.0177,-1.0177,-1.017,-1.0166,-1.0162,-1.0213,-1.0213,-1.0213,0,0,-1.012,-1.0127,-1.0119,-1.0124,-1.0131,-1.014,-1.0139,-1.0149,-1.0154,-1.0148,-1.0163,-1.0161,-1.016,-1.0163,-1.0165,-1.0138,-1.015,-1.0138,-1.0119,-1.0112,-1.0108,-1.0105,-1.0095,-1.0091,-1.0136,-1.0136,-1.0136,0,-1.0102,-1.0099,-1.0114,-1.011,-1.0111,-1.013,-1.0122,-1.0126,-1.0133,-1.0133,-1.0142,-1.014,-1.0146,-1.0136,-1.013,-1.0131,-1.0128,-1.0137,-1.0107,-1.0104,-1.0102,-1.0092,-1.0088,-1.0134,-1.0135,-1.0135,-1.0135,0,-1.0075,-1.0073,-1.0066,-1.0072,-1.0073,-1.0067,-1.008,-1.0079,-1.0089,-1.0097,-1.009,-1.0097,-1.0099,-1.0097,-1.0107,-1.0089,-1.0093,-1.0105,-1.012,-1.0096,-1.0087,-1.0083,-1.0132,-1.0133,-1.0133,-1.0134,0,0,-1.0032,-1.0046,-1.0043,-1.0046,-1.0056,-1.0054,-1.0048,-1.005,-1.0049,-1.0053,-1.0048,-1.0046,-1.0056,-1.0058,-1.0068,-1.0061,-1.0039,-1.0073,-1.0074,-1.0066,-1.0019,-1.001,-1.0005,-1.0047,-1.0046,-1.0045,-1.0018,0,-1.0006,-0.9998,-1.0011,-0.9999,-0.9997,-1.0014,-1.0009,-1.0014,-1.0021,-1.002,-1.0027,-1.0025,-1.004,-1.0041,-1.0035,-1.0043,-1.0029,-1.0045,-1.0041,-1.0041,-1.0039,-1.0001,-0.9992,-0.9965,-1.0015,-1.0014,-1.0014,0,-0.9975,-0.9977,-0.9966,-0.9975,-0.9975,-0.997,-0.9972,-0.9971,-0.9977,-0.9982,-0.9984,-0.9995,-0.9989,-1.0005,-0.9997,-1.0007,-1.0006,-1.001,-1.0009,-1.0009,-1.0025,-0.9999,-0.9957,-0.9953,-1.0009,-1.0009,-1.0009,0,-0.9943,-0.9944,-0.9937,-0.9939,-0.995,-0.9946,-0.995,-0.9957,-0.9957,-0.9959,-0.9959,-0.996,-0.996,-0.996,-0.9972,-0.9982,-0.9962,-0.9978,-0.9965,-0.9965,-0.996,-0.996,-0.9917,-0.996,-0.996,-0.9961,-0.9961,0,-0.9913,-0.9905,-0.9923,-0.9918,-0.9909,-0.9924,-0.9915,-0.9921,-0.9926,-0.9922,-0.9938,-0.9934,-0.9949,-0.9947,-0.9955,-0.9947,-0.9947,-0.9951,-0.9953,-0.9949,-0.9948,-0.9948,-0.995,-0.9959,-0.996,-0.996,-0.996,0,-0.9876,-0.9888,-0.9881,-0.9892,-0.9895,-0.9888,-0.9897,-0.9893,-0.9901,-0.9896,-0.9895,-0.9908,-0.9905,-0.9917,-0.9917,-0.9922,-0.9909,-0.9915,-0.9907,-0.9909,-0.9895,-0.9896,-0.985,-0.9844,-0.9892,-0.9891,-0.9891,0,-0.9856,-0.985,-0.986,-0.9859,-0.9863,-0.9861,-0.9861,-0.9875,-0.9874,-0.988,-0.9875,-0.9874,-0.9874,-0.987,-0.9878,-0.9878,-0.9883,-0.9867,-0.9883,-0.9879,-0.9882,-0.9882,-0.9881,-0.9863,-0.9863,-0.9862,-0.9862,0,-0.9818,-0.9824,-0.9824,-0.9825,-0.9825,-0.9827,-0.983,-0.9828,-0.9843,-0.9842,-0.984,-0.984,-0.984,-0.9838,-0.984,-0.9843,-0.9855,-0.9857,-0.9854,-0.9849,-0.9845,-0.9846,-0.9897,-0.9858,-0.9858,-0.9858,-0.9859,-0.9859,-0.9788,-0.9783,-0.979,-0.9789,-0.9793,-0.9795,-0.9791,-0.9799,-0.9798,-0.9799,-0.9807,-0.9803,-0.9808,-0.9811,-0.9814,-0.9811,-0.9818,-0.9814,-0.9813,-0.9811,-0.9808,-0.9846,-0.9811,-0.9811,-0.9811,-0.9811,-0.9812,0,-0.975,-0.9755,-0.9754,-0.9758,-0.9757,-0.9768,-0.9772,-0.977,-0.9767,-0.9771,-0.9771,-0.9768,-0.9767,-0.9775,-0.9774,-0.977,-0.9775,-0.9769,-0.9769,-0.977,-0.9802,-0.9804,-0.9765,-0.9765,-0.9765,-0.9765,-0.9765,-0.9765,-0.9731,-0.9723,-0.973,-0.9724,-0.9729,-0.9725,-0.9726,-0.9728,-0.9731,-0.9728,-0.9727,-0.9732,-0.9737,-0.9737,-0.9736,-0.9739,-0.9737,-0.973,-0.9734,-0.9763,-0.9768,-0.9772,-0.9774,-0.973,-0.9729,-0.9702,-0.9702,-0.9701]}]]